[[{"header":{"parameterUnit":"m.s-1","parameterCategory":1,"la1":30.2991,"la2":30.254,"lo1":-89.0895,"lo2":-89.0444,"dy":0.0017,"dx":0.0017,"nx":28,"ny":28,"refTime":"2024-08-24T09:00:00:Z","depth":0,"parameterNumber":2,"parameterNumberName":"U-component_of_WINDS"},"data":[0,0,0,0,0,0,0,0,0,0,0,0,0,0,0,0,0,0,0,0,0,0,0,0,0,0,0,0,0,0,0,0,0,0,0,0,0,0,0,0,0,0,0,0,0,0,0,0,0,0,0,0,0,0,0,0,0,0,-3.7784,-3.7784,0,-3.7762,-3.7762,-3.7761,-3.7628,-3.7625,-3.7622,-3.7619,-3.7597,-3.76,-3.7602,0,0,0,0,0,0,0,0,0,0,0,0,0,-3.7712,-3.7714,-3.7784,-3.7784,-3.7784,-3.7762,-3.7762,-3.7761,-3.7629,-3.7625,-3.7621,-3.7617,-3.7597,-3.7599,-3.7602,0,0,0,0,0,0,0,0,0,0,0,0,0,-3.7722,-3.7715,-3.7784,-3.7715,-3.7708,-3.7762,-3.7762,-3.7761,-3.763,-3.7625,-3.762,-3.7615,-3.7596,-3.7599,-3.7603,-3.7722,0,0,-3.7614,-3.7615,0,0,0,0,0,0,0,0,-3.7722,-3.7725,-3.7725,-3.772,-3.7713,-3.7693,-3.7728,-3.7748,-3.7631,-3.766,-3.7619,-3.7613,-3.7633,-3.7633,-3.764,-3.7721,-3.772,-3.7614,-3.7616,-3.7618,-3.7619,0,0,0,0,0,0,0,-3.7721,-3.7725,-3.7775,-3.7725,-3.7718,-3.7685,-3.7681,-3.7731,-3.7674,-3.7657,-3.7647,-3.7646,-3.7629,-3.7637,-3.7638,-3.7719,-3.7614,-3.7617,-3.762,-3.7621,-3.7895,-3.79,0,0,0,0,0,0,-3.773,-3.7726,-3.7776,-3.7775,-3.7705,-3.769,-3.7686,-3.7704,-3.7673,-3.7663,-3.765,-3.764,-3.7633,-3.7634,-3.7637,-3.7772,-3.7618,-3.7621,-3.7623,-3.789,-3.7896,-3.7902,0,0,0,0,0,0,-3.7729,-3.7736,-3.7777,-3.7747,-3.775,-3.7697,-3.7718,-3.7706,-3.7714,-3.7668,-3.7657,-3.7669,-3.7629,-3.7632,-3.7701,-3.777,-3.7623,-3.7626,-3.7884,-3.7892,-3.7899,-3.8046,0,0,0,0,0,0,-3.7728,-3.7737,-3.7781,-3.7749,-3.7752,-3.7841,-3.7722,-3.7709,-3.772,-3.7707,-3.7682,-3.7674,-3.7626,-3.7696,-3.7705,-3.7772,-3.7629,-3.7878,-3.7888,-3.7897,-3.8034,-3.8057,-3.8077,0,0,0,0,0,-3.7726,-3.7824,-3.7784,-3.7791,-3.7807,-3.7846,-3.7847,-3.7789,-3.7726,-3.777,-3.7741,-3.7675,-3.7762,-3.7705,-3.7713,-3.7783,-3.7873,-3.7885,-3.7896,-3.8025,-3.8053,-3.8077,0,0,0,0,0,0,-3.7865,-3.7818,-3.7774,-3.7864,-3.786,-3.7823,-3.7877,-3.7821,-3.7835,-3.7821,-3.7749,-3.7745,-3.7825,-3.7811,-3.7748,-3.7895,-3.7806,-3.782,-3.7901,-3.7927,-3.7948,-3.7949,-3.7632,0,0,0,0,0,-3.7907,-3.7942,-3.7899,-3.7984,-3.7983,-3.7931,-3.7946,-3.7902,-3.7894,-3.7892,-3.7867,-3.7863,-3.7889,-3.7908,-3.7929,-3.8033,-3.8025,-3.8085,-3.8106,-3.8124,-3.8136,-3.8188,-3.8213,-3.7939,-3.7939,-3.7939,0,0,-3.7992,-3.7971,-3.7998,-3.8011,-3.8002,-3.804,-3.793,-3.7976,-3.8003,-3.7899,-3.7962,-3.7944,-3.7935,-3.8021,-3.8058,-3.8012,-3.821,-3.8138,-3.8153,-3.8155,-3.8202,-3.8228,-3.8251,-3.7947,-3.7946,-3.7945,0,0,-3.8167,-3.8156,-3.8223,-3.8217,-3.8205,-3.8169,-3.8186,-3.8158,-3.8142,-3.8204,-3.8126,-3.8158,-3.8205,-3.8201,-3.8205,-3.8379,-3.8318,-3.8389,-3.8499,-3.8551,-3.8572,-3.8591,-3.8652,-3.8674,-3.8401,-3.8402,-3.8402,0,-3.8275,-3.8329,-3.8266,-3.8315,-3.8323,-3.823,-3.8298,-3.8295,-3.8292,-3.8299,-3.8248,-3.8304,-3.8291,-3.8375,-3.8417,-3.8424,-3.844,-3.839,-3.8574,-3.8593,-3.8609,-3.8666,-3.8689,-3.841,-3.8409,-3.8408,-3.8407,0,-3.8461,-3.85,-3.8557,-3.8554,-3.8568,-3.8627,-3.8573,-3.8595,-3.855,-3.852,-3.8585,-3.8566,-3.8582,-3.8599,-3.8556,-3.8676,-3.8648,-3.8587,-3.8495,-3.8645,-3.8697,-3.8718,-3.8422,-3.8419,-3.8417,-3.8414,0,0,-3.8722,-3.8684,-3.8706,-3.8703,-3.8683,-3.8712,-3.8767,-3.8781,-3.8801,-3.8802,-3.8845,-3.8888,-3.8831,-3.8836,-3.8792,-3.8837,-3.8974,-3.877,-3.8769,-3.8807,-3.9104,-3.9149,-3.9175,-3.8935,-3.8939,-3.8942,-3.9104,0,-3.8888,-3.8978,-3.8923,-3.9022,-3.9056,-3.8969,-3.9016,-3.901,-3.8984,-3.9009,-3.898,-3.901,-3.8934,-3.8936,-3.8978,-3.8949,-3.9033,-3.8937,-3.8974,-3.8976,-3.8976,-3.9202,-3.925,-3.9404,-3.9124,-3.9128,-3.913,0,-3.9094,-3.9102,-3.9204,-3.9177,-3.9189,-3.9233,-3.9241,-3.9267,-3.9257,-3.9235,-3.9241,-3.9185,-3.9237,-3.9149,-3.9219,-3.9155,-3.9167,-3.9155,-3.916,-3.9159,-3.9061,-3.9206,-3.9452,-3.9474,-3.9162,-3.916,-3.9157,0,-3.9271,-3.9309,-3.9374,-3.9375,-3.9345,-3.9377,-3.9367,-3.9352,-3.9364,-3.9372,-3.9379,-3.9394,-3.9402,-3.9415,-3.9365,-3.9305,-3.9441,-3.9348,-3.9423,-3.9425,-3.9454,-3.9453,-3.9703,-3.9466,-3.9466,-3.9465,-3.9465,0,-3.9461,-3.9527,-3.9453,-3.9493,-3.9564,-3.95,-3.9572,-3.9552,-3.954,-3.9575,-3.9501,-3.9536,-3.9468,-3.9496,-3.9457,-3.952,-3.9525,-3.9508,-3.9497,-3.9514,-3.9516,-3.9519,-3.9506,-3.9471,-3.947,-3.9469,-3.9468,0,-3.9671,-3.9624,-3.9689,-3.9655,-3.9649,-3.9702,-3.9673,-3.9709,-3.9678,-3.9723,-3.973,-3.9682,-3.971,-3.9662,-3.9685,-3.9659,-3.9747,-3.972,-3.9749,-3.9741,-3.9818,-3.9811,-4.0078,-4.0109,-3.9854,-3.9856,-3.9859,0,-3.9794,-3.9842,-3.9813,-3.983,-3.9823,-3.9853,-3.9864,-3.9804,-3.9819,-3.9812,-3.9849,-3.9871,-3.9885,-3.9936,-3.9903,-3.992,-3.9892,-3.9985,-3.9894,-3.9909,-3.9891,-3.9888,-3.9892,-4.0003,-4.0006,-4.0008,-4.001,0,-4.0017,-3.9991,-4.001,-4.0022,-4.0038,-4.0044,-4.0045,-4.0064,-4.0,-4.0021,-4.0049,-4.006,-4.0084,-4.0106,-4.0116,-4.0105,-4.0047,-4.0039,-4.0057,-4.0074,-4.0088,-4.008,-3.9798,-4.0033,-4.0031,-4.0029,-4.0028,-4.0027,-4.0185,-4.0223,-4.0208,-4.0232,-4.0226,-4.0229,-4.026,-4.0233,-4.0255,-4.0268,-4.0232,-4.0269,-4.0258,-4.0264,-4.026,-4.0287,-4.0246,-4.0273,-4.0279,-4.0286,-4.0298,-4.0086,-4.0289,-4.0289,-4.0288,-4.0287,-4.0287,0,-4.0402,-4.0388,-4.0411,-4.0414,-4.0433,-4.0377,-4.0375,-4.0395,-4.0427,-4.0422,-4.0437,-4.0469,-4.0491,-4.0461,-4.0478,-4.0506,-4.048,-4.0512,-4.0508,-4.0507,-4.0334,-4.0316,-4.0533,-4.0533,-4.0533,-4.0533,-4.0533,-4.0533,-4.0517,-4.0578,-4.0551,-4.0608,-4.0594,-4.0628,-4.0632,-4.0634,-4.0629,-4.0668,-4.0685,-4.0665,-4.0649,-4.0664,-4.0682,-4.0672,-4.0681,-4.0723,-4.0704,-4.0543,-4.0519,-4.0496,-4.0478,-4.0726,-4.0726,-4.0874,-4.0875,-4.0876]},{"header":{"parameterUnit":"m.s-1","parameterCategory":1,"la1":30.2991,"la2":30.254,"lo1":-89.0895,"lo2":-89.0444,"dy":0.0017,"dx":0.0017,"nx":28,"ny":28,"refTime":"2024-08-24T09:00:00:Z","depth":0,"parameterNumber":3,"parameterNumberName":"V-component_of_WINDS"},"data":[0,0,0,0,0,0,0,0,0,0,0,0,0,0,0,0,0,0,0,0,0,0,0,0,0,0,0,0,0,0,0,0,0,0,0,0,0,0,0,0,0,0,0,0,0,0,0,0,0,0,0,0,0,0,0,0,0,0,0.4928,0.4927,0,0.4881,0.4881,0.488,0.4838,0.4837,0.4836,0.4836,0.4787,0.4786,0.4785,0,0,0,0,0,0,0,0,0,0,0,0,0,0.4978,0.4978,0.4928,0.4927,0.4927,0.4881,0.4881,0.488,0.4838,0.4837,0.4836,0.4836,0.4787,0.4786,0.4785,0,0,0,0,0,0,0,0,0,0,0,0,0,0.4947,0.4977,0.4928,0.49,0.4897,0.4882,0.4881,0.488,0.4838,0.4837,0.4836,0.4835,0.4787,0.4786,0.4785,0.4793,0,0,0.4781,0.478,0,0,0,0,0,0,0,0,0.4948,0.4945,0.4905,0.4902,0.4898,0.4864,0.488,0.4851,0.4838,0.486,0.4836,0.4835,0.4813,0.481,0.4803,0.479,0.4788,0.4781,0.478,0.478,0.4779,0,0,0,0,0,0,0,0.4951,0.4946,0.4909,0.4904,0.49,0.4889,0.4884,0.4875,0.4841,0.4858,0.4855,0.485,0.4811,0.4804,0.4801,0.4787,0.4781,0.478,0.4779,0.4778,0.478,0.4781,0,0,0,0,0,0,0.4957,0.4949,0.4911,0.4908,0.4922,0.4889,0.4883,0.4876,0.4841,0.4835,0.4851,0.4848,0.4806,0.4803,0.4799,0.4806,0.478,0.4778,0.4778,0.4779,0.478,0.4781,0,0,0,0,0,0,0.4959,0.4954,0.4913,0.4927,0.4921,0.4889,0.4882,0.4876,0.4868,0.4836,0.483,0.485,0.4806,0.4801,0.4795,0.4804,0.4778,0.4777,0.4779,0.478,0.4781,0.4821,0,0,0,0,0,0,0.496,0.4955,0.4958,0.4928,0.4921,0.491,0.4882,0.4875,0.4866,0.4863,0.4833,0.4827,0.4805,0.4797,0.4794,0.4802,0.4776,0.4778,0.4779,0.478,0.4819,0.4823,0.4827,0,0,0,0,0,0.4962,0.497,0.4958,0.4954,0.4924,0.491,0.4906,0.488,0.4867,0.487,0.4849,0.4828,0.4804,0.4797,0.4793,0.4801,0.4777,0.4779,0.478,0.4817,0.4822,0.4827,0,0,0,0,0,0,0.5001,0.4966,0.4952,0.4951,0.4934,0.4903,0.4905,0.4887,0.4873,0.487,0.4838,0.4832,0.4829,0.4814,0.4807,0.4807,0.4788,0.4789,0.4817,0.4822,0.4826,0.4829,0.4775,0,0,0,0,0,0.501,0.5002,0.4972,0.4974,0.4966,0.4937,0.493,0.4912,0.4893,0.4886,0.4864,0.4846,0.4835,0.4827,0.4815,0.4817,0.481,0.482,0.4825,0.4829,0.483,0.483,0.4834,0.4787,0.4787,0.4787,0,0,0.5027,0.5007,0.5004,0.4981,0.4966,0.4959,0.4931,0.4925,0.4919,0.4884,0.4877,0.4862,0.4839,0.4838,0.4836,0.4825,0.4841,0.4831,0.4834,0.4833,0.4832,0.4837,0.4841,0.4788,0.4788,0.4788,0,0,0.5055,0.5039,0.5039,0.5025,0.5003,0.4984,0.4984,0.4956,0.4945,0.4938,0.4912,0.4905,0.4885,0.487,0.486,0.4885,0.4865,0.4882,0.4904,0.4905,0.4909,0.4912,0.4921,0.4924,0.4883,0.4883,0.4883,0,0.5079,0.5068,0.5041,0.5037,0.5027,0.4997,0.4997,0.4984,0.4959,0.4953,0.4942,0.4918,0.49,0.4895,0.4901,0.4894,0.4893,0.4884,0.4911,0.4914,0.4916,0.4924,0.4927,0.4885,0.4885,0.4885,0.4885,0,0.5099,0.5091,0.5094,0.5071,0.5062,0.506,0.5033,0.5028,0.5011,0.4993,0.4987,0.4966,0.4948,0.4946,0.4929,0.4939,0.4933,0.4917,0.4896,0.4923,0.493,0.4933,0.4888,0.4888,0.4887,0.4886,0,0,0.5148,0.5113,0.5114,0.5104,0.5078,0.5071,0.5068,0.5052,0.5048,0.5032,0.5028,0.5013,0.4999,0.4987,0.4969,0.4969,0.4991,0.4953,0.4952,0.4961,0.5,0.5012,0.5016,0.4978,0.4978,0.4979,0.5002,0,0.5172,0.5164,0.5141,0.514,0.5133,0.5105,0.5102,0.5086,0.507,0.5062,0.5043,0.5033,0.5015,0.5008,0.5008,0.4988,0.4998,0.4986,0.4974,0.4974,0.498,0.502,0.5032,0.5055,0.5005,0.5005,0.5005,0,0.5197,0.5184,0.5183,0.5159,0.5155,0.5153,0.5137,0.5129,0.5111,0.5099,0.5088,0.5067,0.5062,0.5044,0.5037,0.5029,0.5023,0.5013,0.5013,0.501,0.4991,0.5018,0.5062,0.5065,0.5009,0.5009,0.5009,0,0.5234,0.5216,0.5213,0.5205,0.5177,0.5176,0.5164,0.5144,0.5137,0.5123,0.5118,0.5104,0.5096,0.5085,0.5061,0.5051,0.5057,0.5037,0.5047,0.5047,0.5048,0.5048,0.5092,0.5045,0.5045,0.5045,0.5045,0,0.5262,0.5262,0.5229,0.5228,0.5228,0.5201,0.5202,0.5187,0.517,0.5165,0.514,0.5136,0.5105,0.5097,0.5079,0.5076,0.5072,0.5063,0.5057,0.5064,0.5066,0.5059,0.5057,0.5046,0.5046,0.5046,0.5046,0,0.5302,0.528,0.5275,0.5249,0.5243,0.5244,0.5221,0.5218,0.5202,0.5195,0.5192,0.5166,0.5155,0.5131,0.5114,0.5101,0.5103,0.5094,0.511,0.5106,0.5118,0.5117,0.5158,0.5162,0.5113,0.5114,0.5114,0,0.5321,0.5321,0.5295,0.5291,0.528,0.5272,0.5265,0.524,0.5233,0.5212,0.5212,0.52,0.5189,0.5174,0.5152,0.514,0.513,0.5145,0.5128,0.5135,0.513,0.513,0.513,0.5149,0.5149,0.515,0.515,0,0.5358,0.5347,0.5338,0.5325,0.5317,0.5305,0.5292,0.529,0.5261,0.5255,0.5244,0.5236,0.5219,0.5208,0.5192,0.5179,0.516,0.5156,0.5158,0.5165,0.5174,0.5169,0.512,0.5155,0.5155,0.5154,0.5154,0.5154,0.5387,0.5386,0.5369,0.5359,0.5347,0.5336,0.5332,0.5316,0.5307,0.5292,0.5277,0.5269,0.5251,0.5228,0.5216,0.5209,0.5199,0.5202,0.5202,0.5203,0.5206,0.5176,0.5206,0.5206,0.5206,0.5206,0.5205,0,0.5423,0.541,0.5402,0.5385,0.5378,0.5362,0.5347,0.5342,0.5335,0.532,0.531,0.5299,0.5288,0.5266,0.5253,0.5252,0.5243,0.5249,0.5249,0.5246,0.5215,0.5215,0.5257,0.5257,0.5257,0.5257,0.5257,0.5257,0.544,0.5437,0.5425,0.5417,0.5404,0.5396,0.5389,0.5378,0.5367,0.5355,0.5346,0.5333,0.5316,0.5302,0.5291,0.5285,0.5281,0.529,0.5282,0.5253,0.5248,0.5244,0.5243,0.529,0.529,0.5313,0.5313,0.5313]}]]